When you browse on this site, cookies collect data to enhance your experience and personalize the content and advertising you see.
Visit our Privacy Policy to learn more. By continuing to use the site, you agree to this use of cookies and data.
  • In Romania
  • List of Countries
  • For 7 days
  • Water Temperature
  • Satellite Maps
  • Weather Map
  • Weather Widgets
  • user-avatar
    Login

    Hourly Weather Budziejowice

    Today, 19 May, Sunday

    Time Temperature Precipitation Wind Pressure Humidity
    00:00 +14°C° 0 mm 2 mps 736 mmHg 92%
    01:00 +13°C° 0 mm 1 mps 736 mmHg 93%
    02:00 +13°C° 0 mm 1 mps 736 mmHg 93%
    03:00 +12°C° 0 mm 1 mps 736 mmHg 93%
    04:00 +12°C° 0 mm 1 mps 736 mmHg 93%
    05:00 +14°C° 0 mm 1 mps 736 mmHg 89%
    06:00 +15°C° 0 mm 1 mps 736 mmHg 86%
    07:00 +16°C° 0 mm 1 mps 736 mmHg 83%
    08:00 +18°C° 0 mm 2 mps 736 mmHg 78%
    09:00 +20°C° 0 mm 2 mps 736 mmHg 73%
    10:00 +21°C° 0 mm 2 mps 736 mmHg 68%
    11:00 +22°C° 0.1 mm 3 mps 735 mmHg 66%
    12:00 +23°C° 0.1 mm 4 mps 735 mmHg 63%
    13:00 +25°C° 0.1 mm 4 mps 735 mmHg 61%
    14:00 +25°C° 0.7 mm 4 mps 735 mmHg 63%
    15:00 +25°C° 0.7 mm 4 mps 735 mmHg 65%
    16:00 +23°C° 0.7 mm 5 mps 734 mmHg 67%
    17:00 +22°C° 0.3 mm 4 mps 734 mmHg 72%
    18:00 +20°C° 0.3 mm 4 mps 734 mmHg 77%
    19:00 +19°C° 0.3 mm 4 mps 734 mmHg 81%
    20:00 +18°C° 0 mm 3 mps 734 mmHg 84%
    21:00 +16°C° 0 mm 3 mps 734 mmHg 86%
    22:00 +14°C° 0 mm 3 mps 734 mmHg 89%
    23:00 +15°C° 0 mm 2 mps 734 mmHg 89%

    Tomorrow, 20 May, Monday

    Time Temperature Precipitation Wind Pressure Humidity
    00:00 +14°C° 0 mm 2 mps 734 mmHg 90%
    01:00 +14°C° 0 mm 2 mps 734 mmHg 90%
    02:00 +14°C° 0 mm 2 mps 733 mmHg 91%
    03:00 +14°C° 0 mm 2 mps 733 mmHg 91%
    04:00 +14°C° 0 mm 2 mps 733 mmHg 91%
    05:00 +14°C° 0 mm 3 mps 733 mmHg 89%
    06:00 +17°C° 0 mm 4 mps 733 mmHg 86%
    07:00 +18°C° 0 mm 4 mps 733 mmHg 84%
    08:00 +20°C° 0 mm 4 mps 733 mmHg 78%
    09:00 +21°C° 0 mm 4 mps 733 mmHg 72%
    10:00 +23°C° 0 mm 4 mps 734 mmHg 67%
    11:00 +25°C° 0.4 mm 4 mps 734 mmHg 64%
    12:00 +25°C° 0.4 mm 4 mps 734 mmHg 60%
    13:00 +26°C° 0.4 mm 4 mps 734 mmHg 57%
    14:00 +26°C° 0.2 mm 4 mps 734 mmHg 58%
    15:00 +25°C° 0.2 mm 3 mps 734 mmHg 58%
    16:00 +25°C° 0.2 mm 3 mps 734 mmHg 59%
    17:00 +22°C° 0.1 mm 3 mps 734 mmHg 64%
    18:00 +20°C° 0.1 mm 3 mps 734 mmHg 69%
    19:00 +19°C° 0.1 mm 3 mps 734 mmHg 74%
    20:00 +18°C° 0 mm 2 mps 734 mmHg 75%
    21:00 +17°C° 0 mm 2 mps 734 mmHg 75%
    22:00 +16°C° 0 mm 2 mps 734 mmHg 75%
    23:00 +15°C° 0 mm 2 mps 734 mmHg 77%

    Day after tomorrow, 21 May, Tuesday

    Time Temperature Precipitation Wind Pressure Humidity
    00:00 +14°C° 0 mm 1 mps 734 mmHg 78%
    01:00 +14°C° 0 mm 1 mps 734 mmHg 80%
    02:00 +14°C° 0 mm 1 mps 734 mmHg 80%
    03:00 +13°C° 0 mm 1 mps 734 mmHg 81%
    04:00 +13°C° 0 mm 1 mps 734 mmHg 81%
    05:00 +14°C° 0 mm 1 mps 734 mmHg 78%
    06:00 +16°C° 0 mm 1 mps 734 mmHg 76%
    07:00 +16°C° 0 mm 0 mps 735 mmHg 73%
    08:00 +18°C° 0.1 mm 1 mps 735 mmHg 72%
    09:00 +18°C° 0.1 mm 2 mps 735 mmHg 71%
    10:00 +18°C° 0.1 mm 2 mps 735 mmHg 69%
    11:00 +18°C° 0.1 mm 2 mps 735 mmHg 69%
    12:00 +19°C° 0.1 mm 3 mps 735 mmHg 69%
    13:00 +19°C° 0.1 mm 3 mps 735 mmHg 68%
    14:00 +19°C° 0.1 mm 3 mps 735 mmHg 68%
    15:00 +19°C° 0.1 mm 3 mps 735 mmHg 68%
    16:00 +19°C° 0.1 mm 3 mps 735 mmHg 68%
    17:00 +18°C° 0.6 mm 2 mps 735 mmHg 72%
    18:00 +17°C° 0.6 mm 2 mps 736 mmHg 76%
    19:00 +16°C° 0.6 mm 1 mps 736 mmHg 80%
    20:00 +15°C° 0.1 mm 1 mps 736 mmHg 82%
    21:00 +15°C° 0.1 mm 1 mps 736 mmHg 83%
    22:00 +14°C° 0.1 mm 1 mps 736 mmHg 84%
    23:00 +14°C° 0.1 mm 1 mps 736 mmHg 86%

    22 May, Wednesday

    Time Temperature Precipitation Wind Pressure Humidity
    00:00 +14°C° 0.1 mm 1 mps 736 mmHg 88%
    01:00 +13°C° 0.1 mm 1 mps 736 mmHg 90%
    02:00 +13°C° 0.2 mm 1 mps 736 mmHg 90%
    03:00 +13°C° 0.2 mm 1 mps 736 mmHg 91%
    04:00 +13°C° 0.2 mm 1 mps 736 mmHg 92%
    05:00 +14°C° 0.2 mm 1 mps 736 mmHg 90%
    06:00 +15°C° 0.2 mm 2 mps 736 mmHg 87%
    07:00 +15°C° 0.2 mm 2 mps 737 mmHg 85%
    08:00 +17°C° 0.2 mm 2 mps 737 mmHg 80%
    09:00 +18°C° 0.2 mm 2 mps 737 mmHg 76%
    10:00 +19°C° 0.2 mm 3 mps 737 mmHg 72%
    11:00 +19°C° 1 mm 3 mps 737 mmHg 72%
    12:00 +20°C° 1 mm 3 mps 737 mmHg 72%
    13:00 +20°C° 1 mm 4 mps 737 mmHg 72%
    14:00 +20°C° 0.7 mm 4 mps 737 mmHg 74%
    15:00 +19°C° 0.7 mm 4 mps 737 mmHg 77%
    16:00 +19°C° 0.7 mm 4 mps 736 mmHg 80%
    17:00 +18°C° 0.6 mm 4 mps 737 mmHg 83%
    18:00 +17°C° 0.6 mm 3 mps 737 mmHg 87%
    19:00 +14°C° 0.6 mm 3 mps 737 mmHg 91%
    20:00 +14°C° 0.2 mm 3 mps 737 mmHg 92%
    21:00 +14°C° 0.2 mm 4 mps 738 mmHg 93%
    22:00 +13°C° 0.2 mm 4 mps 738 mmHg 95%
    23:00 +13°C° 0.1 mm 4 mps 738 mmHg 94%

    23 May, Thursday

    Time Temperature Precipitation Wind Pressure Humidity
    00:00 +12°C° 0.1 mm 4 mps 738 mmHg 94%
    01:00 +12°C° 0.1 mm 3 mps 738 mmHg 94%
    02:00 +12°C° 0 mm 3 mps 738 mmHg 94%
    03:00 +12°C° 0 mm 3 mps 738 mmHg 95%
    04:00 +11°C° 0 mm 3 mps 738 mmHg 95%
    05:00 +12°C° 0 mm 3 mps 738 mmHg 93%
    06:00 +13°C° 0 mm 3 mps 738 mmHg 91%
    07:00 +14°C° 0 mm 4 mps 738 mmHg 89%
    08:00 +14°C° 0.3 mm 3 mps 739 mmHg 89%
    09:00 +14°C° 0.3 mm 3 mps 739 mmHg 89%
    10:00 +16°C° 0.3 mm 3 mps 739 mmHg 89%
    11:00 +15°C° 0.6 mm 4 mps 739 mmHg 89%
    12:00 +15°C° 0.6 mm 5 mps 739 mmHg 89%
    13:00 +15°C° 0.6 mm 6 mps 739 mmHg 89%
    14:00 +14°C° 0.4 mm 6 mps 739 mmHg 90%
    15:00 +13°C° 0.4 mm 6 mps 739 mmHg 91%
    16:00 +11°C° 0.4 mm 6 mps 739 mmHg 93%
    17:00 +10°C° 0.4 mm 6 mps 740 mmHg 93%
    18:00 +10°C° 0.4 mm 6 mps 740 mmHg 93%
    19:00 +10°C° 0.4 mm 5 mps 740 mmHg 93%
    20:00 +10°C° 0.2 mm 5 mps 740 mmHg 93%
    21:00 +11°C° 0.2 mm 4 mps 741 mmHg 92%
    22:00 +11°C° 0.2 mm 4 mps 741 mmHg 92%
    23:00 +10°C° 0.1 mm 4 mps 741 mmHg 92%

    24 May, Friday

    Time Temperature Precipitation Wind Pressure Humidity
    00:00 +10°C° 0.1 mm 3 mps 741 mmHg 93%
    01:00 +9°C° 0.1 mm 3 mps 741 mmHg 93%
    02:00 +9°C° 0 mm 3 mps 741 mmHg 93%
    03:00 +9°C° 0 mm 2 mps 741 mmHg 93%
    04:00 +9°C° 0 mm 2 mps 741 mmHg 93%
    05:00 +10°C° 0 mm 2 mps 741 mmHg 90%
    06:00 +12°C° 0 mm 2 mps 741 mmHg 86%
    07:00 +13°C° 0 mm 2 mps 741 mmHg 83%
    08:00 +14°C° 0 mm 2 mps 741 mmHg 78%
    09:00 +15°C° 0 mm 2 mps 740 mmHg 72%
    10:00 +16°C° 0 mm 2 mps 740 mmHg 67%
    11:00 +17°C° 0 mm 2 mps 739 mmHg 64%
    12:00 +17°C° 0 mm 2 mps 739 mmHg 61%
    13:00 +19°C° 0 mm 1 mps 738 mmHg 58%
    14:00 +19°C° 0 mm 1 mps 738 mmHg 57%
    15:00 +20°C° 0 mm 1 mps 737 mmHg 56%
    16:00 +20°C° 0 mm 1 mps 737 mmHg 55%
    17:00 +19°C° 0 mm 1 mps 737 mmHg 60%
    18:00 +16°C° 0 mm 1 mps 736 mmHg 66%
    19:00 +15°C° 0 mm 1 mps 736 mmHg 71%
    20:00 +14°C° 0 mm 1 mps 736 mmHg 74%
    21:00 +13°C° 0 mm 1 mps 736 mmHg 78%
    22:00 +12°C° 0 mm 1 mps 735 mmHg 81%
    23:00 +11°C° 0 mm 1 mps 735 mmHg 83%
    Show more